Tracking 26492 objects as of 8-Dec-2022
HD Live streaming from Space Station
objects crossing your sky now

SL-23 R/B

Track SL-23 R/B now!


NORAD ID: 34112
Int'l Code: 2009-009B
Perigee: 1,239.9 km
Apogee: 35,894.2 km
Inclination: 34.2 °
Period: 653.2 minutes
Semi major axis: 24938 km
RCS: 13.401 m2 (large)
Launch date: February 26, 2009
Source: Commonwealth of Independent States (former USSR) (CIS)
Launch site: TYURATAM MISSILE AND SPACE COMPLEX (TTMTR)

Note: This is a ROCKET BODY
aabbcc
Your satellite tracking list
Your tracking list is empty




NASA's NSSDC Master Catalog

Two Line Element Set (TLE):
1 34112U 09009B   22341.44536977  .00000003  00000-0  00000-0 0  9999
2 34112  34.2060 237.4174 6948066  56.2419  35.2785  2.20449670110963
Source of the keplerian elements: AFSPC